Location: ???? ?????????
(31.1304°N, 31.7111°E)
Time: 12:31:35
(UTC+00:00)

NOAA 11 - Pass Details

Date: 29 October 2020
Orbit: 833 x 850 km, 98.4° (Epoch: 26 November)

Event Time Altitude Azimuth Distance (km) Brightness Sun altitude
Rises 15:32:27 0° 155° (SSE) 3,383 7.2 -6.1°
Reaches altitude 10° 15:34:51 10° 151° (SSE) 2,449 6.4 -6.6°
Maximum altitude 15:40:09 56° 74° (ENE) 990 4.3 -7.7°
Drops below altitude 10° 15:45:27 10° 357° (N) 2,451 6.5 -8.9°
Sets 15:47:50 0° 354° (N) 3,387 7.3 -9.4°
